| time (UTC) | temp F | wind direction | speed MPH | gust MPH | rain 1hr in | rain 24hr in | rain mn in | humidity % | barometer mb |
| 20260831233832 | 69 | 242 | 0.0 | 0.0 | 0.00 | 0.00 | 0.00 | 93 | 1025.6 |
| 20260831233327 | 69 | 245 | 0.0 | 0.0 | 0.00 | 0.00 | 0.00 | 91 | 1025.5 |
| 20260831232822 | 70 | 253 | 0.0 | 0.0 | 0.00 | 0.00 | 0.00 | 90 | 1025.6 |
| 20260831232319 | 70 | 254 | 0.0 | 0.0 | 0.00 | 0.00 | 0.00 | 90 | 1025.6 |
| 20260831231815 | 70 | 256 | 0.0 | 0.0 | 0.00 | 0.00 | 0.00 | 90 | 1025.8 |
| 20260831231311 | 71 | 256 | 0.0 | 0.0 | 0.00 | 0.00 | 0.00 | 88 | 1025.7 |
| 20260831230806 | 71 | 258 | 0.0 | 0.0 | 0.00 | 0.00 | 0.00 | 88 | 1025.7 |
| 20260831230301 | 72 | 260 | 0.0 | 0.0 | 0.00 | 0.00 | 0.00 | 87 | 1025.5 |
| 20260831225800 | 72 | 261 | 0.0 | 0.0 | 0.00 | 0.00 | 0.00 | 86 | 1025.8 |
| 20260831225255 | 72 | 262 | 0.0 | 0.0 | 0.00 | 0.00 | 0.00 | 86 | 1025.8 |
| 20260831224750 | 73 | 264 | 0.0 | 0.0 | 0.00 | 0.00 | 0.00 | 85 | 1025.9 |
| 20260831224246 | 73 | 266 | 0.0 | 0.0 | 0.00 | 0.00 | 0.00 | 84 | 1026.0 |
| 20260831223740 | 74 | 267 | 0.0 | 0.0 | 0.00 | 0.00 | 0.00 | 82 | 1025.9 |
| 20260831223237 | 75 | 265 | 1.0 | 2.0 | 0.00 | 0.00 | 0.00 | 80 | 1025.9 |
| 20260831222733 | 76 | 265 | 1.0 | 3.0 | 0.00 | 0.00 | 0.00 | 80 | 1025.9 |
| 20260831222228 | 76 | 275 | 1.0 | 2.0 | 0.00 | 0.00 | 0.00 | 78 | 1025.8 |
| 20260831221724 | 77 | 267 | 0.0 | 2.0 | 0.00 | 0.00 | 0.00 | 76 | 1026.2 |
| 20260831221219 | 77 | 269 | 2.0 | 3.0 | 0.00 | 0.00 | 0.00 | 75 | 1026.0 |
| 20260831220714 | 78 | 261 | 0.0 | 0.0 | 0.00 | 0.00 | 0.00 | 75 | 1026.0 |
| 20260831220209 | 77 | 259 | 0.0 | 0.0 | 0.00 | 0.00 | 0.00 | 78 | 1025.8 |
| 20260831215704 | 76 | 259 | 0.0 | 0.0 | 0.00 | 0.00 | 0.00 | 79 | 1025.9 |
| 20260831215200 | 76 | 260 | 0.0 | 0.0 | 0.00 | 0.00 | 0.00 | 78 | 1026.0 |
| 20260831214657 | 76 | 259 | 0.0 | 0.0 | 0.00 | 0.00 | 0.00 | 80 | 1026.0 |
| 20260831214153 | 76 | 258 | 0.0 | 0.0 | 0.00 | 0.00 | 0.00 | 79 | 1026.0 |
| 20260831213648 | 76 | 258 | 0.0 | 0.0 | 0.00 | 0.00 | 0.00 | 82 | 1026.0 |
| 20260831213143 | 76 | 258 | 0.0 | 0.0 | 0.00 | 0.00 | 0.00 | 79 | 1026.0 |
| 20260831212635 | 76 | 259 | 0.0 | 0.0 | 0.00 | 0.00 | 0.00 | 81 | 1026.0 |
| 20260831212131 | 76 | 258 | 0.0 | 2.0 | 0.00 | 0.00 | 0.00 | 80 | 1026.1 |
| 20260831211630 | 76 | 264 | 1.0 | 2.0 | 0.00 | 0.00 | 0.00 | 80 | 1026.0 |
| 20260831211129 | 76 | 264 | 0.0 | 1.0 | 0.00 | 0.00 | 0.00 | 77 | 1026.1 |
| 20260831210625 | 76 | 267 | 0.0 | 2.0 | 0.00 | 0.00 | 0.00 | 78 | 1026.1 |
| 20260831210121 | 76 | 272 | 0.0 | 1.0 | 0.00 | 0.00 | 0.00 | 79 | 1026.2 |
| 20260831205620 | 76 | 267 | 0.0 | 0.0 | 0.00 | 0.00 | 0.00 | 80 | 1026.1 |
| 20260831205116 | 76 | 276 | 0.0 | 0.0 | 0.00 | 0.00 | 0.00 | 80 | 1026.0 |
| 20260831204616 | 76 | 266 | 2.0 | 3.0 | 0.00 | 0.00 | 0.00 | 78 | 1026.1 |
| 20260831204114 | 76 | 271 | 1.0 | 3.0 | 0.00 | 0.00 | 0.00 | 78 | 1026.2 |
| 20260831203609 | 76 | 265 | 2.0 | 2.0 | 0.00 | 0.00 | 0.00 | 78 | 1026.3 |
| 20260831203108 | 76 | 258 | 1.0 | 3.0 | 0.00 | 0.00 | 0.00 | 77 | 1026.3 |
| 20260831202607 | 75 | 268 | 2.0 | 3.0 | 0.00 | 0.00 | 0.00 | 80 | 1026.2 |
| 20260831202102 | 75 | 274 | 1.0 | 2.0 | 0.00 | 0.00 | 0.00 | 80 | 1026.2 |
| 20260831201600 | 75 | 271 | 2.0 | 3.0 | 0.00 | 0.00 | 0.00 | 79 | 1026.3 |
| 20260831201056 | 76 | 284 | 0.0 | 0.0 | 0.00 | 0.00 | 0.00 | 79 | 1026.6 |
| 20260831200551 | 76 | 284 | 0.0 | 1.0 | 0.00 | 0.00 | 0.00 | 79 | 1026.3 |
| 20260831200046 | 76 | 279 | 1.0 | 1.0 | 0.00 | 0.00 | 0.00 | 77 | 1026.4 |
| 20260831195542 | 76 | 255 | 2.0 | 3.0 | 0.00 | 0.00 | 0.00 | 77 | 1026.3 |
| 20260831195036 | 76 | 270 | 0.0 | 2.0 | 0.00 | 0.00 | 0.00 | 77 | 1026.4 |
| 20260831194526 | 77 | 264 | 2.0 | 3.0 | 0.00 | 0.00 | 0.00 | 76 | 1026.7 |
| 20260831194026 | 76 | 256 | 3.0 | 4.0 | 0.00 | 0.00 | 0.00 | 76 | 1026.4 |
| 20260831193521 | 76 | 270 | 1.0 | 3.0 | 0.00 | 0.00 | 0.00 | 78 | 1026.3 |
| 20260831193016 | 76 | 267 | 0.0 | 1.0 | 0.00 | 0.00 | 0.00 | 80 | 1026.4 |
| 20260831192506 | 75 | 267 | 0.0 | 2.0 | 0.00 | 0.00 | 0.00 | 79 | 1026.6 |
| 20260831192001 | 75 | 267 | 2.0 | 4.0 | 0.00 | 0.00 | 0.00 | 81 | 1026.3 |
| 20260831191457 | 75 | 268 | 0.0 | 0.0 | 0.00 | 0.00 | 0.00 | 81 | 1026.6 |
| 20260831190953 | 74 | 269 | 0.0 | 1.0 | 0.00 | 0.00 | 0.00 | 82 | 1026.6 |
| 20260831190448 | 74 | 268 | 2.0 | 2.0 | 0.00 | 0.00 | 0.00 | 84 | 1026.9 |
| 20260831185946 | 74 | 272 | 2.0 | 4.0 | 0.00 | 0.00 | 0.00 | 82 | 1027.0 |
| 20260831185443 | 73 | 280 | 3.0 | 4.0 | 0.00 | 0.00 | 0.00 | 82 | 1026.8 |
| 20260831184942 | 74 | 258 | 2.0 | 3.0 | 0.00 | 0.00 | 0.00 | 84 | 1027.0 |
| 20260831184437 | 74 | 272 | 2.0 | 2.0 | 0.00 | 0.00 | 0.00 | 82 | 1026.8 |
| 20260831183932 | 73 | 275 | 2.0 | 3.0 | 0.00 | 0.00 | 0.00 | 84 | 1026.8 |
| 20260831183431 | 73 | 266 | 0.0 | 2.0 | 0.00 | 0.00 | 0.00 | 84 | 1026.8 |
| 20260831182926 | 73 | 269 | 2.0 | 4.0 | 0.00 | 0.00 | 0.00 | 84 | 1026.9 |
| 20260831182421 | 73 | 267 | 2.0 | 2.0 | 0.00 | 0.00 | 0.00 | 85 | 1026.9 |
| 20260831181916 | 73 | 270 | 2.0 | 2.0 | 0.00 | 0.00 | 0.00 | 85 | 1027.0 |
| 20260831181412 | 73 | 273 | 1.0 | 2.0 | 0.00 | 0.00 | 0.00 | 85 | 1027.1 |
| 20260831180911 | 73 | 268 | 0.0 | 0.0 | 0.00 | 0.00 | 0.00 | 84 | 1026.8 |
| 20260831180406 | 74 | 268 | 0.0 | 0.0 | 0.00 | 0.00 | 0.00 | 82 | 1026.9 |
| 20260831175905 | 74 | 268 | 0.0 | 0.0 | 0.00 | 0.00 | 0.00 | 85 | 1027.0 |
| 20260831175402 | 73 | 267 | 0.0 | 0.0 | 0.00 | 0.00 | 0.00 | 84 | 1027.0 |
| 20260831174858 | 73 | 267 | 0.0 | 2.0 | 0.00 | 0.00 | 0.00 | 84 | 1027.0 |
| 20260831174353 | 73 | 269 | 0.0 | 0.0 | 0.00 | 0.00 | 0.00 | 85 | 1027.1 |
| 20260831173852 | 73 | 268 | 1.0 | 3.0 | 0.00 | 0.00 | 0.00 | 84 | 1027.2 |
| 20260831173346 | 73 | 262 | 0.0 | 0.0 | 0.00 | 0.00 | 0.00 | 85 | 1027.5 |
| 20260831172841 | 73 | 261 | 0.0 | 0.0 | 0.00 | 0.00 | 0.00 | 83 | 1027.3 |
| 20260831172337 | 72 | 269 | 0.0 | 0.0 | 0.00 | 0.00 | 0.00 | 85 | 1027.3 |
| 20260831171836 | 73 | 269 | 0.0 | 0.0 | 0.00 | 0.00 | 0.00 | 84 | 1027.1 |
| 20260831171333 | 73 | 276 | 0.0 | 0.0 | 0.00 | 0.00 | 0.00 | 85 | 1027.1 |
| 20260831170830 | 73 | 275 | 0.0 | 2.0 | 0.00 | 0.00 | 0.00 | 86 | 1027.1 |
| 20260831170326 | 73 | 281 | 1.0 | 1.0 | 0.00 | 0.00 | 0.00 | 83 | 1026.9 |
| 20260831165822 | 73 | 272 | 1.0 | 1.0 | 0.00 | 0.00 | 0.00 | 85 | 1027.1 |
| 20260831165318 | 73 | 268 | 1.0 | 2.0 | 0.00 | 0.00 | 0.00 | 85 | 1026.9 |
| 20260831164814 | 73 | 270 | 1.0 | 2.0 | 0.00 | 0.00 | 0.00 | 84 | 1027.2 |
| 20260831164310 | 74 | 274 | 2.0 | 2.0 | 0.00 | 0.00 | 0.00 | 82 | 1027.2 |
| 20260831163805 | 74 | 278 | 0.0 | 1.0 | 0.00 | 0.00 | 0.00 | 81 | 1027.2 |
| 20260831163301 | 74 | 267 | 2.0 | 3.0 | 0.00 | 0.00 | 0.00 | 80 | 1027.2 |
| 20260831162759 | 74 | 271 | 2.0 | 3.0 | 0.00 | 0.00 | 0.00 | 80 | 1027.1 |
| 20260831162254 | 75 | 268 | 3.0 | 4.0 | 0.00 | 0.00 | 0.00 | 80 | 1027.3 |
| 20260831161748 | 75 | 266 | 0.0 | 2.0 | 0.00 | 0.00 | 0.00 | 79 | 1027.3 |
| 20260831161245 | 75 | 266 | 0.0 | 1.0 | 0.00 | 0.00 | 0.00 | 80 | 1027.4 |
| 20260831160744 | 74 | 261 | 3.0 | 3.0 | 0.00 | 0.00 | 0.00 | 79 | 1027.4 |
| 20260831160233 | 74 | 265 | 0.0 | 2.0 | 0.00 | 0.00 | 0.00 | 81 | 1027.4 |
| 20260831155733 | 74 | 275 | 0.0 | 2.0 | 0.00 | 0.00 | 0.00 | 82 | 1027.5 |
| 20260831155229 | 74 | 260 | 1.0 | 3.0 | 0.00 | 0.00 | 0.00 | 81 | 1027.4 |
| 20260831154724 | 74 | 277 | 2.0 | 2.0 | 0.00 | 0.00 | 0.00 | 82 | 1027.1 |
| 20260831154221 | 74 | 256 | 2.0 | 6.0 | 0.00 | 0.00 | 0.00 | 81 | 1027.3 |
| 20260831153719 | 74 | 274 | 1.0 | 3.0 | 0.00 | 0.00 | 0.00 | 82 | 1027.5 |
| 20260831153215 | 73 | 266 | 0.0 | 2.0 | 0.00 | 0.00 | 0.00 | 86 | 1027.3 |
| 20260831152711 | 73 | 263 | 2.0 | 2.0 | 0.00 | 0.00 | 0.00 | 84 | 1027.1 |
| 20260831152206 | 73 | 263 | 0.0 | 0.0 | 0.00 | 0.00 | 0.00 | 85 | 1027.4 |
| 20260831151706 | 72 | 260 | 0.0 | 1.0 | 0.00 | 0.00 | 0.00 | 85 | 1027.4 |
| 20260831151200 | 72 | 271 | 2.0 | 2.0 | 0.00 | 0.00 | 0.00 | 86 | 1027.2 |
| 20260831150656 | 71 | 269 | 1.0 | 2.0 | 0.00 | 0.00 | 0.00 | 86 | 1027.2 |
| 20260831150151 | 72 | 255 | 0.0 | 0.0 | 0.00 | 0.00 | 0.00 | 87 | 1027.3 |
| 20260831145650 | 72 | 270 | 0.0 | 0.0 | 0.00 | 0.00 | 0.00 | 86 | 1027.3 |
| 20260831145147 | 72 | 271 | 0.0 | 0.0 | 0.00 | 0.00 | 0.00 | 85 | 1027.1 |
| 20260831144643 | 72 | 272 | 0.0 | 1.0 | 0.00 | 0.00 | 0.00 | 87 | 1027.1 |
| 20260831144138 | 72 | 271 | 1.0 | 2.0 | 0.00 | 0.00 | 0.00 | 87 | 1027.2 |
| 20260831143637 | 72 | 281 | 1.0 | 2.0 | 0.00 | 0.00 | 0.00 | 86 | 1027.0 |
| 20260831143133 | 72 | 282 | 1.0 | 1.0 | 0.00 | 0.00 | 0.00 | 86 | 1027.4 |
| 20260831142629 | 72 | 282 | 2.0 | 3.0 | 0.00 | 0.00 | 0.00 | 86 | 1027.2 |
| 20260831142124 | 72 | 277 | 2.0 | 2.0 | 0.00 | 0.00 | 0.00 | 86 | 1027.3 |
| 20260831141623 | 72 | 269 | 0.0 | 0.0 | 0.00 | 0.00 | 0.00 | 87 | 1027.1 |
| 20260831141123 | 72 | 269 | 0.0 | 0.0 | 0.00 | 0.00 | 0.00 | 87 | 1027.1 |
| 20260831140623 | 71 | 265 | 0.0 | 2.0 | 0.00 | 0.00 | 0.00 | 86 | 1027.2 |
| 20260831140118 | 71 | 264 | 1.0 | 2.0 | 0.00 | 0.00 | 0.00 | 87 | 1027.1 |
| 20260831135615 | 71 | 271 | 0.0 | 0.0 | 0.00 | 0.00 | 0.00 | 87 | 1027.0 |
| 20260831135111 | 70 | 265 | 0.0 | 0.0 | 0.00 | 0.00 | 0.00 | 90 | 1027.0 |
| 20260831134607 | 70 | 263 | 0.0 | 0.0 | 0.00 | 0.00 | 0.00 | 90 | 1027.2 |
| 20260831134102 | 69 | 257 | 0.0 | 0.0 | 0.00 | 0.00 | 0.00 | 90 | 1027.1 |
| 20260831133602 | 69 | 255 | 0.0 | 0.0 | 0.00 | 0.00 | 0.00 | 92 | 1026.9 |
| 20260831133056 | 69 | 241 | 0.0 | 0.0 | 0.00 | 0.00 | 0.00 | 93 | 1027.1 |
| 20260831132553 | 69 | 237 | 0.0 | 0.0 | 0.00 | 0.00 | 0.00 | 93 | 1027.3 |
| 20260831132052 | 69 | 237 | 0.0 | 0.0 | 0.00 | 0.00 | 0.00 | 92 | 1027.1 |
| 20260831131546 | 69 | 235 | 0.0 | 0.0 | 0.00 | 0.00 | 0.00 | 92 | 1027.1 |
| 20260831131043 | 69 | 236 | 0.0 | 0.0 | 0.00 | 0.00 | 0.00 | 91 | 1027.0 |
| 20260831130538 | 68 | 235 | 0.0 | 0.0 | 0.00 | 0.00 | 0.00 | 90 | 1027.1 |
| 20260831130033 | 68 | 235 | 0.0 | 0.0 | 0.00 | 0.00 | 0.00 | 91 | 1026.9 |
| 20260831125532 | 68 | 235 | 0.0 | 0.0 | 0.00 | 0.00 | 0.00 | 91 | 1027.1 |
| 20260831125027 | 68 | 237 | 0.0 | 0.0 | 0.00 | 0.00 | 0.00 | 91 | 1027.0 |
| 20260831124524 | 68 | 237 | 0.0 | 0.0 | 0.00 | 0.00 | 0.00 | 91 | 1027.1 |
| 20260831124019 | 69 | 241 | 0.0 | 0.0 | 0.00 | 0.00 | 0.00 | 90 | 1026.8 |
| 20260831123518 | 69 | 247 | 0.0 | 0.0 | 0.00 | 0.00 | 0.00 | 90 | 1026.7 |
| 20260831123013 | 69 | 252 | 0.0 | 0.0 | 0.00 | 0.00 | 0.00 | 89 | 1026.9 |
| 20260831122508 | 69 | 249 | 0.0 | 0.0 | 0.00 | 0.00 | 0.00 | 89 | 1026.9 |
| 20260831122003 | 69 | 232 | 0.0 | 0.0 | 0.00 | 0.00 | 0.00 | 91 | 1026.8 |
| 20260831121458 | 67 | 189 | 0.0 | 0.0 | 0.00 | 0.00 | 0.00 | 93 | 1026.6 |
| 20260831120954 | 66 | 147 | 0.0 | 0.0 | 0.00 | 0.00 | 0.00 | 96 | 1026.7 |
| 20260831120453 | 64 | 131 | 0.0 | 0.0 | 0.00 | 0.00 | 0.00 | 97 | 1026.6 |
| 20260831115949 | 64 | 126 | 0.0 | 0.0 | 0.00 | 0.00 | 0.00 | 97 | 1026.6 |
| 20260831115445 | 63 | 124 | 0.0 | 0.0 | 0.00 | 0.00 | 0.00 | 98 | 1026.7 |
| 20260831114945 | 0 | 124 | 0.0 | 0.0 | 0.00 | 0.00 | 0.00 | 1026.6 | |
| 20260831114443 | 0 | 122 | 0.0 | 0.0 | 0.00 | 0.00 | 0.00 | 1026.6 | |
| 20260831113939 | 0 | 121 | 0.0 | 0.0 | 0.00 | 0.00 | 0.00 | 1026.4 | |
| 20260831113438 | 0 | 121 | 0.0 | 0.0 | 0.00 | 0.00 | 0.00 | 1026.6 | |
| 20260831112934 | 60 | 120 | 0.0 | 0.0 | 0.00 | 0.00 | 0.00 | 99 | 1026.4 |
| 20260831112429 | 60 | 120 | 0.0 | 0.0 | 0.00 | 0.00 | 0.00 | 99 | 1026.3 |
| 20260831111924 | 0 | 120 | 0.0 | 0.0 | 0.00 | 0.00 | 0.00 | 1026.4 | |
| 20260831111419 | 60 | 119 | 0.0 | 0.0 | 0.00 | 0.00 | 0.00 | 99 | 1026.2 |
| 20260831110915 | 0 | 120 | 0.0 | 0.0 | 0.00 | 0.00 | 0.00 | 1026.3 | |
| 20260831110415 | 60 | 120 | 0.0 | 0.0 | 0.00 | 0.00 | 0.00 | 99 | 1026.2 |
| 20260831105914 | 60 | 120 | 0.0 | 0.0 | 0.00 | 0.00 | 0.00 | 99 | 1026.2 |
| 20260831105409 | 60 | 120 | 0.0 | 0.0 | 0.00 | 0.00 | 0.00 | 99 | 1026.2 |
| 20260831104904 | 0 | 119 | 0.0 | 0.0 | 0.00 | 0.00 | 0.00 | 1026.2 | |
| 20260831104400 | 60 | 120 | 0.0 | 0.0 | 0.00 | 0.00 | 0.00 | 99 | 1026.0 |
| 20260831103855 | 60 | 120 | 0.0 | 0.0 | 0.00 | 0.00 | 0.00 | 99 | 1026.1 |
| 20260831103351 | 59 | 120 | 0.0 | 0.0 | 0.00 | 0.00 | 0.00 | 99 | 1026.2 |
| 20260831102846 | 60 | 120 | 0.0 | 0.0 | 0.00 | 0.00 | 0.00 | 99 | 1026.1 |
| 20260831102341 | 59 | 119 | 0.0 | 0.0 | 0.00 | 0.00 | 0.00 | 99 | 1026.1 |
| 20260831101837 | 59 | 119 | 0.0 | 0.0 | 0.00 | 0.00 | 0.00 | 99 | 1026.0 |
| 20260831101331 | 59 | 119 | 0.0 | 0.0 | 0.00 | 0.00 | 0.00 | 99 | 1026.0 |
| 20260831100828 | 59 | 119 | 0.0 | 0.0 | 0.00 | 0.00 | 0.00 | 99 | 1026.0 |
| 20260831100324 | 59 | 119 | 0.0 | 0.0 | 0.00 | 0.00 | 0.00 | 99 | 1026.1 |
| 20260831095823 | 58 | 119 | 0.0 | 0.0 | 0.00 | 0.00 | 0.00 | 99 | 1026.1 |
| 20260831095318 | 59 | 119 | 0.0 | 0.0 | 0.00 | 0.00 | 0.00 | 99 | 1026.0 |
| 20260831094813 | 59 | 120 | 0.0 | 0.0 | 0.00 | 0.00 | 0.00 | 99 | 1026.0 |
| 20260831094308 | 59 | 120 | 0.0 | 0.0 | 0.00 | 0.00 | 0.00 | 99 | 1026.0 |
| 20260831093804 | 60 | 121 | 0.0 | 0.0 | 0.00 | 0.00 | 0.00 | 99 | 1026.0 |
| 20260831093304 | 60 | 121 | 0.0 | 0.0 | 0.00 | 0.00 | 0.00 | 99 | 1025.9 |
| 20260831092800 | 60 | 121 | 0.0 | 0.0 | 0.00 | 0.00 | 0.00 | 99 | 1026.1 |
| 20260831092256 | 60 | 122 | 0.0 | 0.0 | 0.00 | 0.00 | 0.00 | 99 | 1026.1 |
| 20260831091755 | 60 | 122 | 0.0 | 0.0 | 0.00 | 0.00 | 0.00 | 99 | 1025.9 |
| 20260831091251 | 60 | 121 | 0.0 | 0.0 | 0.00 | 0.00 | 0.00 | 99 | 1025.9 |
| 20260831090746 | 60 | 121 | 0.0 | 0.0 | 0.00 | 0.00 | 0.00 | 99 | 1025.7 |
| 20260831090242 | 60 | 121 | 0.0 | 0.0 | 0.00 | 0.00 | 0.00 | 99 | 1025.8 |
| 20260831085738 | 60 | 122 | 0.0 | 0.0 | 0.00 | 0.00 | 0.00 | 99 | 1025.8 |
| 20260831085233 | 60 | 122 | 0.0 | 0.0 | 0.00 | 0.00 | 0.00 | 99 | 1025.9 |
| 20260831084728 | 60 | 122 | 0.0 | 0.0 | 0.00 | 0.00 | 0.00 | 99 | 1025.7 |
| 20260831084224 | 61 | 124 | 0.0 | 0.0 | 0.00 | 0.00 | 0.00 | 99 | 1025.7 |
| 20260831083720 | 61 | 124 | 0.0 | 0.0 | 0.00 | 0.00 | 0.00 | 99 | 1025.9 |
| 20260831083216 | 61 | 124 | 0.0 | 0.0 | 0.00 | 0.00 | 0.00 | 99 | 1025.8 |
| 20260831082714 | 61 | 124 | 0.0 | 0.0 | 0.00 | 0.00 | 0.00 | 99 | 1026.0 |
| 20260831082210 | 62 | 126 | 0.0 | 0.0 | 0.00 | 0.00 | 0.00 | 99 | 1026.0 |
| 20260831081705 | 62 | 126 | 0.0 | 0.0 | 0.00 | 0.00 | 0.00 | 99 | 1025.9 |
| 20260831081200 | 62 | 126 | 0.0 | 0.0 | 0.00 | 0.00 | 0.00 | 99 | 1025.6 |
| 20260831080656 | 62 | 126 | 0.0 | 0.0 | 0.00 | 0.00 | 0.00 | 99 | 1025.7 |
| 20260831080155 | 62 | 126 | 0.0 | 0.0 | 0.00 | 0.00 | 0.00 | 99 | 1025.4 |
| 20260831075652 | 62 | 127 | 0.0 | 0.0 | 0.00 | 0.00 | 0.00 | 99 | 1025.6 |
| 20260831075147 | 62 | 126 | 0.0 | 0.0 | 0.00 | 0.00 | 0.00 | 99 | 1025.4 |
| 20260831074646 | 62 | 125 | 0.0 | 0.0 | 0.00 | 0.00 | 0.00 | 99 | 1025.5 |
| 20260831074141 | 61 | 126 | 0.0 | 0.0 | 0.00 | 0.00 | 0.00 | 99 | 1025.4 |
| 20260831073636 | 61 | 126 | 0.0 | 0.0 | 0.00 | 0.00 | 0.00 | 98 | 1025.5 |
| 20260831073135 | 62 | 127 | 0.0 | 0.0 | 0.00 | 0.00 | 0.00 | 98 | 1025.6 |
| 20260831072631 | 62 | 127 | 0.0 | 0.0 | 0.00 | 0.00 | 0.00 | 98 | 1025.7 |
| 20260831072127 | 62 | 129 | 0.0 | 0.0 | 0.00 | 0.00 | 0.00 | 98 | 1025.7 |
| 20260831071626 | 62 | 130 | 0.0 | 0.0 | 0.00 | 0.00 | 0.00 | 98 | 1025.8 |
| 20260831071121 | 62 | 130 | 0.0 | 0.0 | 0.00 | 0.00 | 0.00 | 98 | 1025.7 |
| 20260831070621 | 63 | 130 | 0.0 | 0.0 | 0.00 | 0.00 | 0.00 | 98 | 1026.0 |
| 20260831070115 | 62 | 131 | 0.0 | 0.0 | 0.00 | 0.00 | 0.00 | 99 | 1025.8 |
| 20260831065613 | 62 | 129 | 0.0 | 0.0 | 0.00 | 0.00 | 0.00 | 99 | 1025.7 |
| 20260831065108 | 62 | 128 | 0.0 | 0.0 | 0.00 | 0.00 | 0.00 | 99 | 1025.7 |
| 20260831064603 | 62 | 127 | 0.0 | 0.0 | 0.00 | 0.00 | 0.00 | 99 | 1025.5 |
| 20260831064058 | 61 | 127 | 0.0 | 0.0 | 0.00 | 0.00 | 0.00 | 99 | 1025.7 |
| 20260831063554 | 61 | 127 | 0.0 | 0.0 | 0.00 | 0.00 | 0.00 | 99 | 1025.8 |
| 20260831063048 | 61 | 127 | 0.0 | 0.0 | 0.00 | 0.00 | 0.00 | 99 | 1025.8 |
| 20260831062543 | 61 | 127 | 0.0 | 0.0 | 0.00 | 0.00 | 0.00 | 98 | 1026.1 |
| 20260831062042 | 61 | 130 | 0.0 | 0.0 | 0.00 | 0.00 | 0.00 | 98 | 1026.2 |
| 20260831061540 | 62 | 130 | 0.0 | 0.0 | 0.00 | 0.00 | 0.00 | 98 | 1026.0 |
| 20260831061038 | 62 | 132 | 0.0 | 0.0 | 0.00 | 0.00 | 0.00 | 98 | 1026.2 |
| 20260831060537 | 62 | 132 | 0.0 | 0.0 | 0.00 | 0.00 | 0.00 | 98 | 1026.2 |
| 20260831060028 | 62 | 131 | 0.0 | 0.0 | 0.00 | 0.00 | 0.00 | 98 | 1026.4 |
| 20260831055522 | 62 | 133 | 0.0 | 0.0 | 0.00 | 0.00 | 0.00 | 98 | 1026.4 |
| 20260831055018 | 62 | 139 | 0.0 | 0.0 | 0.00 | 0.00 | 0.00 | 97 | 1026.4 |
| 20260831054517 | 63 | 141 | 0.0 | 0.0 | 0.00 | 0.00 | 0.00 | 97 | 1026.3 |
| 20260831054016 | 63 | 149 | 0.0 | 0.0 | 0.00 | 0.00 | 0.00 | 96 | 1026.2 |
| 20260831053514 | 64 | 157 | 0.0 | 0.0 | 0.00 | 0.00 | 0.00 | 96 | 1026.3 |
| 20260831053010 | 63 | 155 | 0.0 | 0.0 | 0.00 | 0.00 | 0.00 | 97 | 1026.1 |
| 20260831052509 | 63 | 151 | 0.0 | 0.0 | 0.00 | 0.00 | 0.00 | 97 | 1026.3 |
| 20260831052008 | 63 | 150 | 0.0 | 0.0 | 0.00 | 0.00 | 0.00 | 97 | 1026.2 |
| 20260831051506 | 63 | 156 | 0.0 | 0.0 | 0.00 | 0.00 | 0.00 | 97 | 1026.6 |
| 20260831051001 | 64 | 174 | 0.0 | 0.0 | 0.00 | 0.00 | 0.00 | 95 | 1026.4 |
| 20260831050500 | 64 | 195 | 0.0 | 0.0 | 0.00 | 0.00 | 0.00 | 95 | 1026.3 |
| 20260831045959 | 64 | 218 | 0.0 | 0.0 | 0.00 | 0.00 | 0.00 | 95 | 1026.4 |
| 20260831045458 | 65 | 233 | 0.0 | 0.0 | 0.00 | 0.00 | 0.00 | 94 | 1026.7 |
| 20260831044954 | 65 | 242 | 0.0 | 0.0 | 0.00 | 0.00 | 0.00 | 94 | 1026.4 |
| 20260831044449 | 65 | 254 | 0.0 | 0.0 | 0.00 | 0.00 | 0.00 | 94 | 1026.6 |
| 20260831043945 | 66 | 257 | 0.0 | 0.0 | 0.00 | 0.00 | 0.00 | 93 | 1026.7 |
| 20260831043444 | 66 | 258 | 0.0 | 0.0 | 0.00 | 0.00 | 0.00 | 93 | 1026.8 |
| 20260831042940 | 66 | 262 | 0.0 | 0.0 | 0.00 | 0.00 | 0.00 | 92 | 1026.7 |
| 20260831042439 | 66 | 263 | 0.0 | 0.0 | 0.00 | 0.00 | 0.00 | 92 | 1026.4 |
| 20260831041939 | 66 | 264 | 0.0 | 0.0 | 0.00 | 0.00 | 0.00 | 92 | 1026.6 |
| 20260831041439 | 66 | 264 | 0.0 | 0.0 | 0.00 | 0.00 | 0.00 | 91 | 1026.9 |
| 20260831040934 | 66 | 265 | 0.0 | 0.0 | 0.00 | 0.00 | 0.00 | 91 | 1026.7 |
| 20260831040429 | 66 | 264 | 0.0 | 0.0 | 0.00 | 0.00 | 0.00 | 91 | 1026.9 |
| 20260831035926 | 66 | 263 | 0.0 | 0.0 | 0.00 | 0.01 | 0.01 | 92 | 1026.9 |
| 20260831035420 | 65 | 260 | 0.0 | 0.0 | 0.00 | 0.01 | 0.01 | 93 | 1026.8 |
| 20260831034915 | 65 | 258 | 0.0 | 0.0 | 0.00 | 0.01 | 0.01 | 94 | 1026.8 |
| 20260831034410 | 65 | 257 | 0.0 | 0.0 | 0.00 | 0.01 | 0.01 | 95 | 1027.0 |
| 20260831033905 | 65 | 258 | 0.0 | 0.0 | 0.00 | 0.01 | 0.01 | 95 | 1026.8 |
| 20260831033401 | 65 | 261 | 0.0 | 0.0 | 0.00 | 0.01 | 0.01 | 95 | 1026.8 |
| 20260831032856 | 65 | 264 | 0.0 | 0.0 | 0.00 | 0.01 | 0.01 | 95 | 1026.8 |
| 20260831032350 | 65 | 265 | 0.0 | 0.0 | 0.00 | 0.01 | 0.01 | 94 | 1027.1 |
| 20260831031846 | 66 | 268 | 0.0 | 0.0 | 0.00 | 0.01 | 0.01 | 93 | 1027.0 |
| 20260831031345 | 66 | 269 | 0.0 | 0.0 | 0.00 | 0.01 | 0.01 | 93 | 1027.1 |
| 20260831030840 | 66 | 272 | 0.0 | 0.0 | 0.00 | 0.01 | 0.01 | 93 | 1027.1 |
| 20260831030338 | 66 | 272 | 0.0 | 0.0 | 0.00 | 0.01 | 0.01 | 92 | 1026.9 |
| 20260831025837 | 66 | 273 | 0.0 | 0.0 | 0.00 | 0.01 | 0.01 | 92 | 1027.1 |
| 20260831025337 | 66 | 272 | 1.0 | 1.0 | 0.00 | 0.01 | 0.01 | 92 | 1026.8 |
| 20260831024833 | 66 | 272 | 1.0 | 2.0 | 0.00 | 0.01 | 0.01 | 92 | 1027.2 |
| 20260831024332 | 66 | 272 | 1.0 | 2.0 | 0.00 | 0.01 | 0.01 | 92 | 1027.1 |
| 20260831023831 | 66 | 273 | 1.0 | 2.0 | 0.00 | 0.01 | 0.01 | 91 | 1027.2 |
| 20260831023330 | 66 | 272 | 1.0 | 2.0 | 0.00 | 0.01 | 0.01 | 91 | 1027.1 |
| 20260831022825 | 66 | 272 | 2.0 | 2.0 | 0.00 | 0.01 | 0.01 | 91 | 1027.3 |
| 20260831022324 | 66 | 266 | 2.0 | 2.0 | 0.00 | 0.01 | 0.01 | 91 | 1027.2 |
| 20260831021819 | 66 | 276 | 2.0 | 2.0 | 0.00 | 0.01 | 0.01 | 91 | 1027.1 |
| 20260831021318 | 67 | 278 | 2.0 | 2.0 | 0.00 | 0.01 | 0.01 | 91 | 1027.2 |
| 20260831020815 | 67 | 279 | 2.0 | 2.0 | 0.00 | 0.01 | 0.01 | 91 | 1027.0 |
| 20260831020314 | 67 | 279 | 2.0 | 2.0 | 0.00 | 0.01 | 0.01 | 90 | 1027.0 |
| 20260831015810 | 67 | 281 | 2.0 | 2.0 | 0.00 | 0.01 | 0.01 | 91 | 1027.1 |
| 20260831015306 | 67 | 281 | 0.0 | 0.0 | 0.00 | 0.01 | 0.01 | 91 | 1027.1 |
| 20260831014805 | 67 | 281 | 0.0 | 0.0 | 0.00 | 0.01 | 0.01 | 91 | 1027.1 |
| 20260831014300 | 67 | 281 | 0.0 | 0.0 | 0.00 | 0.01 | 0.01 | 92 | 1026.9 |
| 20260831013757 | 66 | 281 | 0.0 | 0.0 | 0.00 | 0.01 | 0.01 | 92 | 1026.9 |
| 20260831013255 | 67 | 281 | 0.0 | 0.0 | 0.00 | 0.01 | 0.01 | 91 | 1027.2 |
| 20260831012751 | 68 | 284 | 0.0 | 0.0 | 0.00 | 0.01 | 0.01 | 89 | 1027.2 |
| 20260831012246 | 68 | 284 | 0.0 | 0.0 | 0.00 | 0.01 | 0.01 | 89 | 1026.9 |
| 20260831011745 | 68 | 284 | 0.0 | 0.0 | 0.00 | 0.01 | 0.01 | 89 | 1027.1 |
| 20260831011241 | 68 | 282 | 0.0 | 0.0 | 0.00 | 0.01 | 0.01 | 89 | 1027.1 |
| 20260831010737 | 67 | 280 | 0.0 | 0.0 | 0.00 | 0.01 | 0.01 | 89 | 1026.9 |
| 20260831010236 | 67 | 273 | 0.0 | 0.0 | 0.00 | 0.01 | 0.01 | 90 | 1026.9 |
| 20260831005732 | 66 | 263 | 0.0 | 0.0 | 0.00 | 0.01 | 0.01 | 92 | 1026.8 |
| 20260831005227 | 65 | 216 | 0.0 | 0.0 | 0.00 | 0.01 | 0.01 | 94 | 1026.7 |
| 20260831004722 | 64 | 191 | 0.0 | 0.0 | 0.00 | 0.01 | 0.01 | 95 | 1026.4 |
| 20260831004219 | 64 | 190 | 0.0 | 0.0 | 0.00 | 0.01 | 0.01 | 95 | 1026.6 |
| 20260831003714 | 64 | 190 | 0.0 | 0.0 | 0.00 | 0.01 | 0.01 | 95 | 1026.3 |
| 20260831003211 | 64 | 191 | 0.0 | 0.0 | 0.00 | 0.01 | 0.01 | 94 | 1026.2 |
| 20260831002710 | 65 | 192 | 0.0 | 0.0 | 0.00 | 0.01 | 0.01 | 93 | 1026.1 |
| 20260831002210 | 65 | 192 | 0.0 | 0.0 | 0.00 | 0.01 | 0.01 | 93 | 1025.9 |
| 20260831001706 | 65 | 198 | 0.0 | 0.0 | 0.00 | 0.01 | 0.01 | 93 | 1026.0 |
| 20260831001206 | 65 | 198 | 0.0 | 0.0 | 0.00 | 0.01 | 0.01 | 94 | 1025.9 |
| 20260831000703 | 65 | 200 | 0.0 | 0.0 | 0.00 | 0.01 | 0.01 | 93 | 1025.8 |
| 20260831000158 | 66 | 201 | 0.0 | 0.0 | 0.00 | 0.01 | 0.01 | 91 | 1026.1 |
| 20260830235656 | 67 | 203 | 0.0 | 0.0 | 0.00 | 0.01 | 0.01 | 90 | 1025.8 |
| 20260830235152 | 67 | 204 | 1.0 | 1.0 | 0.00 | 0.01 | 0.01 | 88 | 1026.0 |
| 20260830234646 | 67 | 209 | 1.0 | 2.0 | 0.00 | 0.01 | 0.01 | 88 | 1025.8 |